Preview of NWS' New Version of Forecast
This preview is not operational and should not be used for support decisions.

Regional Weather Roundup (RWR)

Issued by National Weather Service (NWS)

                            
000
ASUS43 KLSX 201057
RWRMO 

WEATHER SUMMARY FOR MISSOURI
NATIONAL WEATHER SERVICE SPRINGFIELD MO
600 AM CDT TUE AUG 20 2019

NOTE: "FAIR" INDICATES FEW OR NO CLOUDS BELOW 12,000 FEET WITH NO
       SIGNIFICANT WEATHER AND/OR OBSTRUCTIONS TO VISIBILITY.
       CURRENT SKY AND/OR WEATHER CONDITIONS ARE NOT AVAILABLE FOR
       CHILLICOTHE AND FARMINGTON.

MOZ001>031-035>038-043-044-053-054-201200-
...NORTHERN AND WESTERN MISSOURI...
  
CITY           SKY/WX    TMP DP  RH WIND       PRES   REMARKS
KANSAS CTY INT PTCLDY    80  74  81 SW12      29.93R                  
LEE'S SUMMIT   CLEAR     81  72  74 SW15      29.95R                  
ST JOSEPH      CLEAR     80  74  81 S10       29.91R                  
CHILLICOTHE      N/A     79  76  90 S6        29.93R                  
     
$$
MOZ066>068-077>081-088>096-101>105-201200-
...SOUTHWEST MISSOURI...
  
CITY           SKY/WX    TMP DP  RH WIND       PRES   REMARKS
SPRINGFIELD    CLEAR     75  71  87 S7        30.01S                  
JOPLIN         CLEAR     77  73  87 S8        29.99F                  
               
$$
MOZ032>034-039>042-045>050-055>058-069>072-201200-
...CENTRAL MISSOURI...  
  
CITY           SKY/WX    TMP DP  RH WIND       PRES   REMARKS
COLUMBIA       NOT AVBL                                               
ROLLA          CLEAR     76  72  87 S8        30.02R                  
SEDALIA        CLEAR     76  73  91 S8        29.96R                  
WARRENSBURG    CLEAR     77  72  83 S6        29.94S                  
               
$$
MOZ051-052-059>065-201200-
...EAST CENTRAL MISSOURI...
  
CITY           SKY/WX    TMP DP  RH WIND       PRES   REMARKS
ST LOUIS INTL  MOCLDY    81  73  76 S3        29.99R                  
                   
$$
MOZ072>076-082>087-097>100-106>115-201200-
...SOUTH CENTRAL AND SOUTHEAST MISSOURI...
  
CITY           SKY/WX    TMP DP  RH WIND       PRES   REMARKS
CAPE GIRARDEAU FAIR      75  72  90 CALM      30.00F                  
POPLAR BLUFF   FAIR      75  74  96 S3        30.01S FOG              
WEST PLAINS    CLEAR     76  73  91 SW5       30.04F                  
                                       
$$